Погода в Собинке

Россия / Владимирская область     55°59′37″N   40°01′04″E
темп.,
°C
ветер,
м/с
пор.,
м/с
влажн.,
%
обл.,
%
осадки,
мм/ч
давл.,
гПа
погр.,
м
24 сентября, пт
пт2400:00+8ююв2595100 0.0 1010159
03:00+8ююв3795100 0.0 1008242
06:00+8ююв3796100 0.0 1007267
09:00+9ю4886100 0.0 1008491
12:00+9ю4982100 0.1 1008982
15:00+11ююв587336 0.2 10071061
18:00+9ююв388011 0.2 1007289
21:00+6юв4119280 0.2 1008254
25 сентября, сб
сб2500:00+8юв3987100 0.1 1008266
03:00+7юв269079 0.1 1008174
06:00+5юв249490 0.0 100878
09:00+9ююв367999 0.0 1009256
12:00+12ю366290 0.0 1009776
15:00+13ююв456041 0.1 10091212
18:00+9ю228023 0.1 100924
21:00+9ю2679100 0.1 1008186
26 сентября, вс
вс2600:00+9ююв2684100 0.0 1008195
03:00+9ююв2686100 0.0 1007221
06:00+8ююв2590100 0.0 1006206
09:00+8вюв2694100 1.6 1006330
12:00+9всв2492100 1.2 1007171
15:00+9ссв369099 1.6 1009240
18:00+9ссв4889100 0.4 1011293
21:00+9ссв4990100 0.4 1014356
27 сентября, пн
пн2700:00+9ссв499254 0.1 1015359
03:00+6с3109352 0.1 1017246
06:00+6с4119129 0.0 1019318
09:00+7с41088100 0.0 1020483
12:00+9с5986100 0.1 1021732
15:00+8с4891100 0.1 1022586
18:00+8с4992100 0.1 1024530
21:00+8ссв4892100 0.1 1025577
28 сентября, вт
вт2800:00+8ссв4894100 0.1 1026525
03:00+7ссв4893100 0.1 1027449
06:00+7ссв379499 0.0 1029406
09:00+8св468492 0.0 1030511
12:00+9ссв4578100 0.0 1030785
15:00+9с4575100 0.1 1030826
18:00+8с378195 0.0 1031487
21:00+8ссв3882100 0.0 1031441